Regional Weather Roundup
Issued by NWS

Home | Current Version | Previous Version | Graphics & Text | Print | Product List | Glossary On
Versions: 1 2 3 4 5 6 7 8 9 10 11 12 13 14 15 16 17 18 19 20 21 22 23 24 25 26 27 28 29 30 31 32 33 34 35 36 37 38 39 40 41 42 43 44 45 46 47 48 49 50
255
ASUS44 KJAN 260710
RWRMS

MISSISSIPPI HOURLY WEATHER ROUNDUP
NATIONAL WEATHER SERVICE JACKSON MS
200 AM CDT SUN OCT 26 2014

NOTE: "FAIR: INDICATES FEW OR NO CLOUDS BELOW 12,000 FEET WITH NO
SIGNIFICANT WEATHER AND/OR OBSTRUCTIONS TO VISIBILITY.

MSZ001>002-007>008-010>013-018>021-025>028-034>036-260800-
NORTHWEST MISSISSIPPI

CITY           SKY/WX    TMP DP  RH WIND       PRES   REMARKS
CLARKSDALE     FAIR      63  63 100 CALM      30.03F
CLEVELAND      FAIR      63  62  99 S5        30.03S
GREENWOOD      CLEAR     59  57  93 CALM      30.04S FOG
GREENVILLE     CLEAR     62  60  93 S5        30.03S
GRENADA          N/A    N/A N/A N/A MISG        N/A
OLIVE BRANCH   CLEAR     61 N/A N/A CALM      30.02S
OXFORD         FAIR      57  57 100 CALM      30.05S FOG
TUNICA         SUNNY     61  59  94 CALM      30.02F
$$

MSZ003>006-009-014>017-022>024-029>033-037>039-260800-
NORTHEAST MISSISSIPPI

CITY           SKY/WX    TMP DP  RH WIND       PRES   REMARKS
COLUMBUS AFB   CLEAR     56  56 100 SE2       30.03F
CORINTH        FOG       57  55  94 CALM      30.02S VSB 1/4
GOLDN TRIANGLE CLEAR    N/A N/A N/A SW3       30.03F
STARKVILLE       N/A     55  55 100 CALM      30.04F FOG
TUPELO         CLEAR     60  58  92 CALM      30.03S FOG
$$

MSZ040-058-260800-
CENTRAL MISSISSIPPI

CITY           SKY/WX    TMP DP  RH WIND       PRES   REMARKS
JACKSON INTL   CLEAR     57  56  96 CALM      30.06F
JACKSON HAWKNS CLEAR     60  58  92 CALM      30.06F FOG
MERIDIAN KEY   CLEAR     55  53  93 CALM      30.05F
MERIDIAN NAS   CLEAR     58  55  90 CALM      30.05F
RAYMOND        HAZE      55  50  82 MISG      30.06S VSB 3/4
VICKSBURG      CLEAR     56  54  93 CALM      30.05F
$$

MSZ059>079-260800-
SOUTH MISSISSIPPI

CITY           SKY/WX    TMP DP  RH WIND       PRES   REMARKS
BROOKHAVEN     FAIR      55  55 100 CALM      30.08F FOG
COLUMBIA       PTSUNNY   55  55 100 MISG        N/A
HATTIESBURG    CLEAR     58  55  90 CALM      30.07S
MCCOMB         CLEAR     56  53  90 CALM      30.07F
NATCHEZ        CLEAR     57  54  88 CALM      30.07F
PINE BELT      CLEAR     57  54  88 CALM      30.07F
$$

MSZ080>082-260800-
COASTAL MISSISSIPPI

CITY           SKY/WX    TMP DP  RH WIND       PRES   REMARKS
BILOXI         CLEAR     62  61  94 N3        30.05S
PASCAGOULA     CLEAR     53  53 100 CALM      30.05S FOG
GULFPORT       CLEAR     59  57  93 CALM      30.05S
$$



USA.gov is the U.S. government's official web portal to all federal, state and local government web resources and services.